Simultaneous Nadir Overpasses (SNOs) Predictions

Prediction of SNOs between LANDSAT-8 and METOP-B Satellite Orbit:

Table of predicted SNOs for the next 14.0 days since TLE Epoch: 10/31/2020
Index Date (LANDSAT-8) Time (LANDSAT-8) Lat,Lon (LANDSAT-8) SZA (LANDSAT-8 ) Date (METOP-B) Time (METOP-B) Lat,Lon (METOP-B) SZA (METOP-B ) Distance(km) Time Diff (sec)
1 11/01/2020 22:15:31 -81.12, 66.00 81.71 11/01/2020 22:15:29 -81.12, 65.96 81.71 0.62 2
2 11/01/2020 23:04:56 81.15,-125.87 98.38 11/01/2020 23:06:07 81.15,-125.85 98.42 0.42 71
3 11/04/2020 17:00:19 81.09, -35.58 99.10 11/04/2020 16:59:12 81.09, -35.65 99.06 1.20 67
4 11/04/2020 17:49:45 -81.11, 132.35 80.85 11/04/2020 17:49:52 -81.11, 132.19 80.87 2.68 7
5 11/07/2020 12:34:33 81.11, 31.07 99.96 11/07/2020 12:33:35 81.10, 30.94 99.92 2.43 58
6 11/07/2020 13:23:59 -81.13,-160.97 79.99 11/07/2020 13:24:14 -81.13,-160.84 79.96 2.20 15
7 11/10/2020 08:08:47 81.12, 97.69 100.78 11/10/2020 08:07:57 81.12, 97.88 100.78 3.26 50
8 11/10/2020 08:58:13 -81.14, -94.33 79.17 11/10/2020 08:58:37 -81.14, -94.28 79.15 0.89 24
9 11/13/2020 03:43:01 81.10, 163.91 101.49 11/13/2020 03:42:20 81.11, 164.05 101.50 2.58 41
